Flag for Finland Weather past 2 weeks in Oulu, Finland

Now
81 °F

Passing clouds.


Feels Like: 83 °F
Forecast: 61 / 79 °F
Wind: 3 mph from Southwest

Location: Oulu Airport

Current Time: Jul 23, 2014 at 1:21:11 PM

Latest Report: Jul 23, 2014 at 12:20 PM


Visibility: N/A

Pressure: 30.15 "Hg

Humidity: 62%

Dew point: 66 °F

Location of OuluLocation

Historic Weather in Oulu — Graph

°F

Oulu temperature yesterday

Maximum temperature yesterday: 81 °F (at 2:50 PM)
Minimum temperature yesterday: 59 °F (at 3:20 AM)
Average temperature yesterday: 71 °F

Past Weeks' High & Low Weather Summary

 TemperatureHumidityPressure
High86 °F (Jul 14, 3:50 PM)100% (Jul 9, 2:50 AM)30.30 "Hg (Jul 9, 2:50 AM)
Low50 °F (Jul 11, 3:20 AM)7% (Jul 8, 2:50 PM)29.80 "Hg (Jul 15, 6:20 PM)
Average69 °F68%30.09 "Hg
* Reported Jul 8 8:20 AM — Jul 23 8:20 AM, Oulu, Weather by CustomWeather, © 2014

Note: Actual official high and low records may vary slightly from our data, if they occured in-between our weather recording intervals... More about our weather records

Advertising

Oulu weather history for previous 24 hours

 ConditionsComfort  
Time TempWeatherWind HumidityBarometerVisibility
8:20 AM
Jul 23
72 °FScattered clouds.6 mph78%30.15 "HgN/A
7:50 AM70 °FPassing clouds.1 mph83%30.15 "HgN/A
7:20 AM70 °FPartly sunny.3 mph78%30.15 "HgN/A
6:50 AM70 °FScattered clouds.5 mph78%30.15 "HgN/A
6:20 AM68 °FSunny.1 mph83%30.15 "Hg10 mi
5:50 AM66 °FPassing clouds.3 mph83%30.15 "HgN/A
5:20 AM66 °FSunny.8 mph83%30.15 "Hg10 mi
4:50 AM66 °FPassing clouds.5 mph83%30.15 "HgN/A
4:20 AM66 °FClear.6 mph83%30.18 "Hg10 mi
3:50 AM66 °FClear.7 mph88%30.18 "Hg10 mi
3:20 AM66 °FClear.7 mph88%30.18 "Hg10 mi
2:50 AM66 °FClear.6 mph88%30.18 "Hg10 mi
7:50 PM
Jul 22
75 °FSunny.12 mph54%30.18 "Hg10 mi
7:20 PM77 °FSunny.9 mph54%30.18 "Hg10 mi
6:50 PM77 °FSunny.9 mph51%30.18 "Hg10 mi
6:20 PM77 °FSunny.13 mph47%30.18 "Hg10 mi
5:50 PM79 °FSunny.16 mph42%30.18 "Hg10 mi
5:20 PM79 °FSunny.15 mph45%30.21 "Hg10 mi
4:50 PM79 °FSunny.14 mph42%30.21 "Hg10 mi
4:20 PM79 °FSunny.16 mph42%30.21 "Hg10 mi
3:50 PM79 °FSunny.15 mph42%30.21 "Hg10 mi
3:20 PM79 °FSunny.14 mph42%30.21 "Hg10 mi
2:50 PM81 °FSunny.15 mph42%30.21 "Hg10 mi
2:20 PM79 °FSunny.14 mph42%30.21 "Hg10 mi
1:50 PM79 °FSunny.14 mph45%30.24 "Hg10 mi
1:20 PM79 °FSunny.12 mph48%30.24 "Hg10 mi
Weather by CustomWeather, © 2014

See weather overviewHow to use our weather pages